This demonstration page uses our WeatherBlox Daily Observations layout. Learn more.

Left ArrowRight Arrow

Hourly Observations for October 9, 2020

Temp ( °F °C ) Dew Point ( °F °C ) Humidity (%) Winds ( mph kmh ) Pressure ( in mb ) Visibility ( mi km ) Precip ( " mm )
12:15 am 00:15 Clear 48 9 45 7 87 87 N N/A 30.15 1021 10 16 N/A
12:35 am 00:35 Clear 50 10 45 7 82 82 N N/A 30.15 1021 10 16 N/A
12:55 am 00:55 Clear 48 9 45 7 87 87 E 3 6 30.15 1021 10 16 N/A
1:15 am 01:15 Clear 50 10 46 8 88 88 N N/A 30.14 1021 10 16 N/A
1:35 am 01:35 Clear 52 11 46 8 82 82 E 3 6 30.14 1021 10 16 N/A
1:55 am 01:55 Clear 52 11 45 7 77 77 N N/A 30.14 1021 10 16 N/A
2:15 am 02:15 Clear 50 10 45 7 82 82 S 5 7 30.15 1021 10 16 N/A
2:35 am 02:35 Clear 52 11 45 7 77 77 N N/A 30.14 1021 10 16 N/A
2:55 am 02:55 Clear 52 11 45 7 77 77 N N/A 30.13 1020 10 16 N/A
3:15 am 03:15 Clear 50 10 45 7 82 82 N N/A 30.13 1020 10 16 N/A
3:35 am 03:35 Clear 46 8 45 7 93 93 N N/A 30.14 1021 10 16 N/A
3:55 am 03:55 Clear 48 9 45 7 87 87 N N/A 30.12 1020 10 16 N/A
4:15 am 04:15 Clear 46 8 45 7 93 93 N N/A 30.13 1020 10 16 N/A
4:35 am 04:35 Clear 46 8 45 7 93 93 ENE 3 6 30.13 1020 10 16 N/A
4:55 am 04:55 Clear 45 7 43 6 93 93 N N/A 30.13 1020 10 16 N/A
5:15 am 05:15 Clear 43 6 43 6 100 100 N N/A 30.14 1021 10 16 N/A
5:35 am 05:35 Clear 43 6 43 6 100 100 SSE 3 6 30.14 1021 10 16 N/A
5:55 am 05:55 Clear 46 8 45 7 93 93 N N/A 30.14 1021 10 16 N/A
6:15 am 06:15 Clear 46 8 45 7 93 93 SE 5 7 30.14 1021 10 16 N/A
6:35 am 06:35 Clear 50 10 46 8 88 88 SE 5 7 30.13 1020 10 16 N/A
6:55 am 06:55 Clear 50 10 48 9 94 94 SE 6 9 30.13 1020 10 16 N/A
7:15 am 07:15 Clear 50 10 48 9 94 94 SE 6 9 30.13 1020 10 16 N/A
7:35 am 07:35 Clear 50 10 48 9 94 94 SE 6 9 30.13 1020 10 16 N/A
7:55 am 07:55 Sunny 50 10 48 9 94 94 SE 6 9 30.13 1020 10 16 N/A
8:15 am 08:15 Sunny 52 11 48 9 88 88 SE 7 11 30.12 1020 10 16 N/A
8:35 am 08:35 Sunny 52 11 48 9 88 88 SSE 6 9 30.13 1020 10 16 N/A
8:55 am 08:55 Sunny 55 13 50 10 82 82 SSE 5 7 30.12 1020 10 16 N/A
9:15 am 09:15 Sunny 57 14 50 10 77 77 S 7 11 30.12 1020 10 16 N/A
9:35 am 09:35 Sunny 59 15 50 10 72 72 SSE 8 13 30.11 1020 10 16 N/A
9:55 am 09:55 Sunny 61 16 52 11 72 72 SSE 6 9 30.12 1020 10 16 N/A
10:15 am 10:15 Sunny 64 18 52 11 64 64 S 6 9 30.10 1019 10 16 N/A
10:35 am 10:35 Sunny 66 19 54 12 64 64 S 9 15 30.10 1019 10 16 N/A
10:55 am 10:55 Sunny 68 20 54 12 60 60 S 10 17 30.10 1019 10 16 N/A
11:15 am 11:15 Sunny 72 22 54 12 53 53 S 15 24 30.09 1019 10 16 N/A
11:35 am 11:35 Sunny 72 22 54 12 53 53 S 15 24 30.08 1019 10 16 N/A
11:56 am 11:56 Sunny 73 23 54 12 50 50 S 14 22 30.07 1018 10 16 N/A
12:15 pm 12:15 Sunny 75 24 54 12 47 47 S 15 24 30.06 1018 10 16 N/A
12:35 pm 12:35 Sunny 77 25 54 12 44 44 S 13 20 30.04 1017 10 16 N/A
12:55 pm 12:55 Sunny 79 26 55 13 45 45 S 14 22 30.04 1017 10 16 N/A
1:15 pm 13:15 Sunny 81 27 55 13 42 42 S 13 20 30.03 1017 10 16 N/A
1:55 pm 13:55 Sunny 81 27 57 14 45 45 S 13 20 30.01 1016 10 16 N/A
2:15 pm 14:15 Sunny 81 27 57 14 45 45 SSW 15 24 30.00 1016 10 16 N/A
2:35 pm 14:35 Sunny 81 27 57 14 45 45 S 17 28 29.99 1015 10 16 N/A
2:55 pm 14:55 Sunny 81 27 57 14 45 45 S 15 24 29.98 1015 10 16 N/A
3:15 pm 15:15 Sunny 79 26 57 14 48 48 S 12 19 29.98 1015 10 16 N/A
3:35 pm 15:35 Sunny 81 27 57 14 45 45 SSW 10 17 29.97 1015 10 16 N/A
3:55 pm 15:55 Sunny 81 27 57 14 45 45 S 9 15 29.96 1014 10 16 N/A
4:15 pm 16:15 Sunny 79 26 57 14 48 48 S 9 15 29.96 1015 10 16 N/A
4:35 pm 16:35 Sunny 81 27 59 15 48 48 SSW 9 15 29.95 1014 10 16 N/A
4:55 pm 16:55 Sunny 81 27 59 15 48 48 S 13 20 29.94 1014 10 16 N/A
5:15 pm 17:15 Sunny 82 28 61 16 48 48 S 13 20 29.93 1014 10 16 N/A
5:35 pm 17:35 Sunny 81 27 59 15 48 48 S 15 24 29.94 1014 10 16 N/A
5:55 pm 17:55 Sunny 79 26 59 15 51 51 S 14 22 29.94 1014 10 16 N/A
6:15 pm 18:15 Sunny 79 26 61 16 54 54 S 12 19 29.93 1014 10 16 N/A
6:35 pm 18:35 Sunny 77 25 61 16 57 57 S 10 17 29.94 1014 10 16 N/A
6:55 pm 18:55 Sunny 77 25 61 16 57 57 S 7 11 29.94 1014 10 16 N/A
7:15 pm 19:15 Clear 75 24 61 16 61 61 S 7 11 29.94 1014 10 16 N/A
7:35 pm 19:35 Clear 75 24 61 16 61 61 S 7 11 29.94 1014 10 16 N/A
7:55 pm 19:55 Clear 73 23 61 16 65 65 S 8 13 29.94 1014 10 16 N/A
8:15 pm 20:15 Clear 73 23 63 17 69 69 S 9 15 29.94 1014 10 16 N/A
8:35 pm 20:35 Clear 72 22 63 17 73 73 S 8 13 29.95 1014 10 16 N/A
8:55 pm 20:55 Clear 72 22 63 17 73 73 S 8 13 29.95 1014 10 16 N/A
9:15 pm 21:15 Clear 72 22 63 17 73 73 SSW 10 17 29.95 1014 10 16 N/A
9:35 pm 21:35 Clear 72 22 63 17 73 73 SSW 9 15 29.96 1015 10 16 N/A
9:55 pm 21:55 Clear 70 21 63 17 78 78 SSW 9 15 29.96 1014 10 16 N/A
10:15 pm 22:15 Clear 70 21 63 17 78 78 S 8 13 29.96 1014 10 16 N/A
10:35 pm 22:35 Clear 68 20 63 17 83 83 SSW 9 15 29.97 1015 10 16 N/A
10:55 pm 22:55 Clear 68 20 63 17 83 83 SSW 12 19 29.97 1015 10 16 N/A
11:15 pm 23:15 Clear 68 20 63 17 83 83 SSW 10 17 29.97 1015 10 16 N/A
11:35 pm 23:35 Clear 68 20 63 17 83 83 SSW 8 13 29.97 1015 10 16 N/A
11:55 pm 23:55 Clear 68 20 63 17 83 83 S 10 17 29.97 1015 10 16 N/A

Powered by AerisWeather